Location: Wellington
(41.3000°S, 174.7830°E)
Time: 13:35:03
(UTC+13:00)

Cosmos 1741 Rocket - Pass Details

Date: 24 January 2019
Orbit: 761 x 783 km, 74.0° (Epoch: 13 October)

Event Time Altitude Azimuth Distance (km) Brightness Sun altitude
Rises 21:10:06 0° 346° (NNW) 3,256 7.1 -4.3°
Reaches altitude 10° 21:12:28 10° 346° (NNW) 2,338 6.3 -4.7°
Maximum altitude 21:17:48 80° 72° (ENE) 808 4.1 -5.5°
Drops below altitude 10° 21:23:13 10° 158° (SSE) 2,374 6.7 -6.4°
Sets 21:25:38 0° 159° (SSE) 3,310 7.5 -6.8°
